Terug naar catalogus

STARLINK-3786

ActiefCommunicatieVLEO
NORAD 52263·PAYLOAD·🇺🇸 United States

Gelanceerd Apr 21, 2022 vanaf Cape Canaveral Space Force Station

Loading…

Volgende Passages (komende 24 uur)

TLE

VersSource: CelesTrak SupGP

Epoch: Sep 14, 2026, 21:40 UTC

1 52263C 22041C   26257.90326389 -.00033273  00000+0 -10096-2 0  2573
2 52263  53.1591 333.7642 0001413  72.2180 173.8812 15.33565082    10

Volg STARLINK-3786 in realtime met AllMySat

Download on the App Store